User: anonymous   Login
Location: Unspecified
(0.0000°N, 0.0000°E)
Time: 20:33:09
(UTC+00:00)
Language:

Transit 2A - Orbit

View from above orbital plane
View from above orbital plane
View from above satellite
View from above satellite

Ground track
Ground track

The orbit data is extracted from the following two-line orbital elements,

1 00045U 60007A   16036.80481112  .00000078  00000-0  46873-4 0  9990
2 00045  66.6935 259.9993 0252116  34.1087 327.5926 14.33453931894272
Epoch (UTC): 05 February 2016 19:18:55
Eccentricity: 0.0252116
inclination: 66.6935°
perigee height: 600 km
apogee height: 960 km
right ascension of ascending node: 259.9993°
argument of perigee: 34.1087°
revolutions per day: 14.33453931
mean anomaly at epoch: 327.5926°
orbit number at epoch: 89427

The dashed part of the orbit path shows where the satellite is in the earth's shadow,  

DLR